Flag for Iceland Weather past 2 weeks in Reykjavik, Iceland

Now
48 °F

Scattered clouds.


Feels Like: 47 °F
Forecast: 47 / 55 °F
Wind: 3 mph from South

Location: Reykjavik Airport

Current Time: Jul 29, 2015 at 7:36:28 AM

Latest Report: Jul 29, 2015 at 7:00 AM


Visibility: N/A

Pressure: 29.98 "Hg

Humidity: 87%

Dew point: 45 °F

Location of ReykjavikLocation

Historic Weather in Reykjavik — Graph

°F

Reykjavik temperature yesterday

Maximum temperature yesterday: 55 °F (at 11:00 AM)
Minimum temperature yesterday: 46 °F (at 4:00 AM)
Average temperature yesterday: 52 °F

Past Weeks' High & Low Weather Summary

 TemperatureHumidityPressure
High63 °F (Jul 17, 2:00 PM)93% (Jul 17, 5:00 AM)30.07 "Hg (Jul 17, 5:00 AM)
Low43 °F (Jul 27, 5:00 AM)44% (Jul 27, 1:00 PM)29.65 "Hg (Jul 20, 2:00 PM)
Average52 °F68%29.88 "Hg
* Reported Jul 14 6:00 AM — Jul 29 6:00 AM, Reykjavik, Weather by CustomWeather, © 2015

Note: Actual official high and low records may vary slightly from our data, if they occured in-between our weather recording intervals... More about our weather records

Advertising

Reykjavik weather history for previous 24 hours

 ConditionsComfort  
Time TempWeatherWind HumidityBarometerVisibility
6:00 AM
Wed, Jul 29
46 °FBroken clouds.5 mph87%29.98 "HgN/A
5:00 AM48 °FBroken clouds.No wind82%29.98 "HgN/A
4:00 AM48 °FPassing clouds.No wind76%29.98 "HgN/A
3:00 AM48 °FPassing clouds.No wind82%29.98 "HgN/A
2:00 AM48 °FClear.No wind76%29.98 "Hg10 mi
1:00 AM46 °FClear.3 mph87%29.98 "Hg10 mi
12:00 AM50 °FPassing clouds.1 mph76%29.98 "HgN/A
11:00 PM
Tue, Jul 28
52 °FClear.No wind72%29.98 "Hg10 mi
9:00 PM54 °FSprinkles. Partly sunny.3 mph67%29.98 "HgN/A
8:00 PM54 °FScattered showers. Broken clouds.5 mph72%29.98 "HgN/A
7:00 PM55 °FBroken clouds.7 mph63%29.98 "HgN/A
6:00 PM54 °FBroken clouds.9 mph72%29.98 "HgN/A
5:00 PM55 °FBroken clouds.6 mph63%29.98 "HgN/A
4:00 PM54 °FScattered showers. Broken clouds.9 mph72%29.98 "HgN/A
3:00 PM54 °FPartly sunny.6 mph72%29.98 "HgN/A
2:00 PM55 °FBroken clouds.10 mph63%29.98 "HgN/A
1:00 PM55 °FScattered clouds.10 mph59%29.98 "HgN/A
12:00 PM55 °FPassing clouds.8 mph63%29.98 "HgN/A
11:00 AM55 °FPassing clouds.5 mph59%29.98 "HgN/A
10:00 AM54 °FBroken clouds.6 mph67%29.98 "HgN/A
9:00 AM54 °FPassing clouds.No wind67%29.98 "HgN/A
8:00 AM52 °FPassing clouds.3 mph72%29.98 "HgN/A
7:00 AM48 °FSunny.6 mph82%29.98 "Hg10 mi
Weather by CustomWeather, © 2015

See weather overviewHow to use our weather pages